Regional Weather Roundup
Issued by NWS

Home | Current Version | Previous Version | Text Only | Print | Product List | Glossary On
Versions: 1 2 3 4 5 6 7 8 9 10 11 12 13 14 15 16 17 18 19 20 21 22 23 24 25 26 27 28 29 30 31 32 33 34 35 36 37 38 39 40 41 42 43 44 45 46 47 48 49 50
000
ASUS44 KLIX 290013
RWRLA
LOUISIANA WEATHER ROUNDUP
NATIONAL WEATHER SERVICE NEW ORLEANS LA
700 PM CDT SUN MAY 28 2017

NOTE: "FAIR" INDICATES FEW OR NO CLOUDS BELOW 12,000 FEET WITH NO
      SIGNIFICANT WEATHER AND/OR OBSTRUCTIONS TO VISIBILITY.
      SKY/WX - SKY CONDITION AND SIGNIFICANT WEATHER.
      TMP - AIR TEMPERATURE.    DP   - DEWPOINT TEMPERATURE.
      RH  - RELATIVE HUMIDITY.  PRES - PRESSURE.
      HX  - HEAT INDEX.         WCI  - WIND CHILL INDEX.

*  THESE STATIONS ARE NOT NWS OR FAA STATIONS AND ARE NOT UNDER
   NWS QUALITY CONTROL.

LAZ040-048-061>063-065-066-069-290100-
SOUTHEAST LOUISIANA

CITY           SKY/WX    TMP DP  RH WIND       PRES   REMARKS
N.O. INTL ARPT CLOUDY    84  73  69 SE16      29.93R
6HR MIN TEMP:  84; 6HR MAX TEMP:  89;

N.O. LAKEFRONT MOSUNNY   86  73  65 S18       29.94R
6HR MIN TEMP:  82; 6HR MAX TEMP:  90; 6HR PCP: TRACE;

N.O. DOWNTOWN*   N/A     87  72  60 S12G20      N/A
6HR MIN TEMP:  84; 6HR MAX TEMP:  92; 6HR PCP: TRACE;

RESERVE*       FAIR      86  74  68 SE7       29.91F
6HR MIN TEMP:  82; 6HR MAX TEMP:  92;

SLIDELL        CLOUDY    85  74  69 SE7       29.92F
6HR MIN TEMP:  76; 6HR MAX TEMP:  89;

BATON ROUGE    SUNNY     83  74  74 E10       29.88F
6HR MIN TEMP:  75; 6HR MAX TEMP:  85; 6HR PCP: TRACE;

BOOTHVILLE     CLOUDY    80  78  94 S13       29.96S FOG
6HR MIN TEMP:  80; 6HR MAX TEMP:  89;

BELLE CHASSE   PTSUNNY  N/A N/A N/A S13       29.94R
BOGALUSA*      FAIR      84  68  58 S13       29.90F
6HR MIN TEMP:  75; 6HR MAX TEMP:  86;

GALLIANO*      CLOUDY    80  72  75 SE8       29.95S
6HR MIN TEMP:  80; 6HR MAX TEMP:  89;

NEW ROADS*     FAIR      82  73  73 E7        29.86F
6HR MIN TEMP:  73; 6HR MAX TEMP:  82;

GONZALES*      FAIR      83  73  70 E5        29.88F
6HR MIN TEMP:  80; 6HR MAX TEMP:  89;

HAMMOND*       SUNNY     82  70  65 SE8       29.90F
HOUMA*         SUNNY     82  73  74 SE6       29.95R HAZE
PORT FOURCHON* CLEAR     81  75  83 S15G22    29.95F HAZE

$$

LAZ041-044-053-054-290100-
SOUTHWEST LOUISIANA

CITY           SKY/WX    TMP DP  RH WIND       PRES   REMARKS
LAKE CHARLES   SUNNY     83  74  74 S14       29.81F
6HR MIN TEMP:  77; 6HR MAX TEMP:  86; 6HR PCP:  0.23;

LAFAYETTE      SUNNY     84  73  69 S14G21    29.86F
6HR MIN TEMP:  75; 6HR MAX TEMP:  85; 6HR PCP:  0.17;

PATTERSON      CLOUDY    84  74  71 S10       29.91F
6HR MIN TEMP:  84; 6HR MAX TEMP:  88;

SALT POINT       N/A     83  76  79 VRB3      29.90S
6HR MIN TEMP:  83; 6HR MAX TEMP:  87;

NEW IBERIA     SUNNY     85  68  56 S18       29.88F
6HR MIN TEMP:  82; 6HR MAX TEMP:  91;

CHENAULT AIRPK MOSUNNY   84  75  74 S18       29.81F

$$

LAZ027-028-290100-
CENTRAL LOUISIANA

CITY           SKY/WX    TMP DP  RH WIND       PRES   REMARKS
FORT POLK      CLOUDY    82  74  77 CALM      29.87R
6HR MIN TEMP:  77; 6HR MAX TEMP:  86;

ALEXANDRIA INT CLOUDY    81  72  74 SE10      29.86R
6HR MIN TEMP:  76; 6HR MAX TEMP:  85;

ALEXANDRIA     MOSUNNY   81  73  76 SE3       29.88R
6HR MIN TEMP:  76; 6HR MAX TEMP:  85;


$$

LAZ001-002-290100-
NORTHWEST LOUISIANA

CITY           SKY/WX    TMP DP  RH WIND       PRES   REMARKS
SHREVEPORT     TSTM      67  65  93 E21       29.83F
6HR MIN TEMP:  68; 6HR MAX TEMP:  88; 6HR PCP:  2.06;

BARKSDALE AFB  TSTM      73  72  97 SE7       29.93R FOG
6HR MIN TEMP:  73; 6HR MAX TEMP:  88; 6HR PCP:  0.26;

DTN SHREVEPORT TSTM      74  71  91 VRB5      29.92R
6HR MIN TEMP:  74; 6HR MAX TEMP:  88; 6HR PCP:  0.16;


$$

LAZ014-016-290100-
NORTHEAST LOUISIANA

CITY           SKY/WX    TMP DP  RH WIND       PRES   REMARKS
MONROE         CLOUDY    79  72  79 N5        29.92R
6HR MIN TEMP:  74; 6HR MAX TEMP:  85; 6HR PCP: TRACE;

TALLULAH       PTSUNNY   77  70  79 N3        29.91F
6HR MIN TEMP:  73; 6HR MAX TEMP:  82; 6HR PCP:  0.03;


$$




USA.gov is the U.S. government's official web portal to all federal, state and local government web resources and services.